New Orleans NAS, LA

9:53 PM CDT on May 22, 2017 (GMT -0500)
New Orleans Naval Air Station

Weather History for KNBG - October, 2012

Change the Weather History Date:

Thursday, October 11, 2012

  Actual Average Record
Temperature  
Mean Temperature 74 °F -  
Max Temperature 82 °F 77 °F 89 °F (2014)
Min Temperature 66 °F 61 °F 46 °F (2000)
Cooling Degree Days 9    
Growing Degree Days 24 (Base 50)    
Moisture  
Dew Point 63 °F    
Average Humidity 71    
Maximum Humidity 88    
Minimum Humidity 52    
Precipitation  
Precipitation 0.73 in - - ()
Sea Level Pressure  
Sea Level Pressure 30.19 in    
Wind  
Wind Speed 2 mph (ENE)    
Max Wind Speed 9 mph    
Max Gust Speed -    
Visibility 7 miles    
Events Fog    
Averages and records for this station are not official NWS values.
T = Trace of Precipitation, MM = Missing Value Source: NWS Daily Summary

Daily Weather History Graph

Daily Weather History Graph

Search for Another Location

Airport or City:

Trip Planner

Search our weather history database for the weather conditions in past years. The results will help you decide how hot, cold, wet, or windy it might be!

Date:

Astronomy

Oct. 11, 2012 Rise Set
Actual Time 6:59 AM CDT 6:33 PM CDT
Civil Twilight 6:35 AM CDT 6:57 PM CDT
Nautical Twilight 6:07 AM CDT 7:24 PM CDT
Astronomical Twilight 5:40 AM CDT 7:52 PM CDT
Moon 2:55 AM CDT (10/11) 3:55 PM CDT (10/11)
Length of Visible Light 12h 21m
Length of Day
11h 33m
Waning Crescent, 18% of the Moon is Illuminated
Oct 11
Waning Crescent
Oct 15
New
Oct 21
First Quarter
Oct 29
Full
Nov 6
Last Quarter

Hourly Weather History & Observations

Time (CDT) Temp. Heat Index Dew Point Humidity Pressure Visibility Wind Dir Wind Speed Gust Speed Precip Events Conditions
12:55 AM 69.1 °F - 61.0 °F 75% 30.16 in 10.0 mi Calm Calm - N/A   Clear
1:55 AM 66.9 °F - 60.1 °F 79% 30.16 in 9.0 mi Calm Calm - N/A   Clear
2:55 AM 68.0 °F - 61.0 °F 78% 30.16 in 10.0 mi Calm Calm - N/A   Clear
3:55 AM 66.9 °F - 60.1 °F 79% 30.15 in 10.0 mi ENE 3.5 mph - N/A   Clear
4:55 AM 68.0 °F - 60.1 °F 76% 30.16 in 9.0 mi Calm Calm - N/A   Clear
5:55 AM 66.0 °F - 59.0 °F 78% 30.17 in 4.0 mi Calm Calm - N/A   Haze
6:02 AM 66.2 °F - 59.0 °F 78% 30.17 in 1.8 mi Calm Calm - N/A   Haze
6:08 AM 66.2 °F - 60.8 °F 83% 30.17 in 7.0 mi Calm Calm - N/A Fog Shallow Fog
6:55 AM 68.0 °F - 59.0 °F 73% 30.19 in 1.0 mi Calm Calm - N/A   Scattered Clouds
7:38 AM 68.0 °F - 60.8 °F 78% 30.20 in 1.0 mi NE 5.8 mph - N/A   Scattered Clouds
7:55 AM 69.8 °F - 66.0 °F 88% 30.20 in 1.0 mi NE 5.8 mph - N/A   Scattered Clouds
8:20 AM 71.6 °F - 66.2 °F 83% 30.21 in 3.0 mi NE 4.6 mph - N/A   Scattered Clouds
8:55 AM 72.7 °F - 66.9 °F 82% 30.21 in 7.0 mi ENE 5.8 mph - N/A   Scattered Clouds
9:55 AM 77.2 °F - 68.0 °F 73% 30.24 in 8.0 mi ENE 3.5 mph - N/A   Scattered Clouds
10:55 AM 79.5 °F - 66.0 °F 63% 30.24 in 10.0 mi ENE 3.5 mph - N/A   Mostly Cloudy
11:55 AM 81.3 °F 83.0 °F 64.9 °F 57% 30.23 in 10.0 mi East 5.8 mph - 0.73 in   Mostly Cloudy
12:55 PM 81.5 °F 83.3 °F 64.9 °F 57% 30.21 in 10.0 mi Variable 6.9 mph - N/A   Mostly Cloudy
1:55 PM 80.8 °F 82.4 °F 64.0 °F 57% 30.19 in 10.0 mi East 8.1 mph - N/A   Scattered Clouds
2:55 PM 82.2 °F 83.7 °F 64.0 °F 54% 30.18 in 10.0 mi East 9.2 mph - N/A   Scattered Clouds
3:55 PM 82.4 °F 83.9 °F 64.0 °F 54% 30.18 in 10.0 mi East 6.9 mph - N/A   Scattered Clouds
4:55 PM 81.1 °F 82.1 °F 62.1 °F 52% 30.17 in 10.0 mi East 6.9 mph - N/A   Scattered Clouds
5:55 PM 78.4 °F - 63.0 °F 59% 30.17 in 10.0 mi ESE 5.8 mph - N/A   Partly Cloudy
6:55 PM 76.3 °F - 63.0 °F 63% 30.18 in 10.0 mi SE 5.8 mph - N/A   Scattered Clouds
7:55 PM 73.2 °F - 63.0 °F 70% 30.20 in 10.0 mi Calm Calm - N/A   Clear
8:55 PM 71.2 °F - 63.0 °F 75% 30.21 in 8.0 mi Calm Calm - N/A   Clear
9:55 PM 70.7 °F - 63.0 °F 76% 30.22 in 8.0 mi Calm Calm - N/A   Clear
10:55 PM 70.7 °F - 63.0 °F 76% 30.21 in 7.0 mi NE 3.5 mph - N/A   Clear
11:55 PM - - - N/A% 30.20 in 3.0 mi Calm Calm - N/A   Clear